User: anonymous   Login
Location: Vancouver
(49.2500°N, 123.1330°W)
Time: 04:30:44
(UTC-08:00)
Language:

Cosmos 1864 Rocket - Orbit

View from above orbital plane
View from above orbital plane
View from above satellite
View from above satellite

Ground track
Ground track

The orbit data is extracted from the following two-line orbital elements,

1 18161U 87057B   15057.34667297  .00000073  00000-0  57857-4 0  9992
2 18161 082.9380 338.3542 0032108 147.3961 331.7768 13.76888775368374
Epoch (UTC): 26 February 2015 08:19:12
Eccentricity: 0.0032108
inclination: 82.9380°
perigee height: 951 km
apogee height: 998 km
right ascension of ascending node: 338.3542°
argument of perigee: 147.3961°
revolutions per day: 13.76888775
mean anomaly at epoch: 331.7768°
orbit number at epoch: 36837

The dashed part of the orbit path shows where the satellite is in the earth's shadow,  

DLR